CW6391 Weather Reports


time (UTC)temp
C
wind
direction
speed
KPH
gust
KPH
rain 1hr
cm
rain 24hr
cm
rain mn
cm
humidity
%
barometer
mb
20260506093201 17 254 3.2 12.9 0.00 0.58 0.00 58 1005.8
20260506092658 17 271 6.4 14.5 0.00 0.58 0.00 57 1005.8
20260506092201 17 280 6.4 11.3 0.00 0.58 0.00 56 1005.8
20260506091704 17 258 4.8 11.3 0.00 0.58 0.00 57 1005.8
20260506091158 17 260 4.8 12.9 0.00 0.58 0.00 56 1005.8
20260506090658 17 229 1.6 12.9 0.00 0.58 0.00 56 1005.8
20260506090158 17 252 3.2 11.3 0.00 0.58 0.00 54 1005.8
20260506085701 17 237 3.2 11.3 0.00 0.58 0.00 56 1005.8
20260506085158 17 241 3.2 11.3 0.00 0.58 0.00 57 1005.8
20260506084658 16 271 6.4 12.9 0.00 0.58 0.00 58 1005.8
20260506084158 17 281 3.2 12.9 0.00 0.58 0.00 59 1005.8
20260506083701 17 238 1.6 11.3 0.00 0.58 0.00 60 1005.8
20260506083158 16 256 3.2 11.3 0.00 0.58 0.00 62 1005.8
20260506082658 16 267 3.2 11.3 0.00 0.58 0.00 63 1005.8
20260506082204 16 264 1.6 11.3 0.00 0.58 0.00 62 1005.8
20260506081658 16 180 3.2 11.3 0.00 0.58 0.00 61 1005.8
20260506081158 16 301 1.6 14.5 0.00 0.58 0.00 61 1005.8
20260506080704 16 180 8.0 14.5 0.00 0.58 0.00 62 1005.8
20260506080158 16 199 3.2 11.3 0.00 0.58 0.00 61 1005.5
20260506073158 15 235 3.2 11.3 0.00 0.58 0.00 69 1005.5
20260506072658 15 239 4.8 9.7 0.00 0.58 0.00 69 1005.5
20260506072158 15 251 4.8 11.3 0.00 0.58 0.00 69 1005.5
20260506071658 15 219 1.6 9.7 0.00 0.58 0.00 71 1005.1
20260506071158 14 309 3.2 14.5 0.00 0.58 0.00 70 1005.5
20260506070701 14 232 3.2 14.5 0.00 0.58 0.00 71 1005.1
20260506070158 14 279 1.6 6.4 0.00 0.58 0.00 72 1005.1
20260506062158 13 244 1.6 6.4 0.00 0.58 0.00 76 1005.5
20260506061701 13 256 3.2 8.0 0.00 0.58 0.00 76 1005.5
20260506061158 13 245 4.8 11.3 0.00 0.58 0.00 76 1005.5
20260506060701 13 276 4.8 11.3 0.00 0.58 0.00 76 1005.5
20260506060201 13 271 0.0 8.0 0.00 0.58 0.00 76 1005.5
20260506051158 12 237 0.0 8.0 0.00 0.58 0.00 81 1005.8
20260506050701 12 263 1.6 8.0 0.00 0.58 0.00 81 1005.8
20260506050201 12 289 0.0 9.7 0.00 0.58 0.00 81 1005.8
20260506044658 12 277 1.6 4.8 0.00 0.58 0.00 81 1005.8
20260506044158 12 256 1.6 4.8 0.00 0.58 0.00 81 1005.5
20260506043658 12 261 0.0 6.4 0.00 0.58 0.00 81 1005.5
20260506043158 12 199 0.0 6.4 0.00 0.58 0.00 81 1005.5
20260506042658 12 238 3.2 8.0 0.00 0.58 0.00 81 1005.5
20260506042204 12 223 1.6 11.3 0.00 0.58 0.00 82 1005.5
20260506041701 12 233 1.6 6.4 0.00 0.58 0.00 82 1005.5
20260506041204 12 242 3.2 6.4 0.00 0.58 0.00 82 1005.5
20260506040658 12 259 1.6 6.4 0.00 0.58 0.00 82 1005.5
20260506040158 12 250 0.0 8.0 0.00 0.58 0.00 82 1005.5
20260506035658 12 286 0.0 9.7 0.00 0.58 0.00 82 1005.1
20260506035204 12 224 1.6 11.3 0.00 0.58 0.00 82 1005.1
20260506034658 12 249 3.2 11.3 0.00 0.58 0.00 82 1005.1
20260506034158 12 246 3.2 8.0 0.00 0.58 0.00 82 1005.5
20260506033701 12 235 1.6 11.3 0.00 0.58 0.00 82 1005.5
20260506033204 12 239 1.6 11.3 0.00 0.58 0.00 82 1005.5
20260506032704 12 244 3.2 6.4 0.00 0.58 0.00 82 1005.1
20260506032158 12 299 1.6 4.8 0.00 0.58 0.00 83 1005.1
20260506031658 12 262 1.6 6.4 0.00 0.58 0.00 83 1005.1
20260506031158 12 180 1.6 8.0 0.00 0.58 0.00 83 1005.1
20260506030701 12 204 1.6 6.4 0.00 0.58 0.00 83 1005.5
20260506030204 12 253 0.0 4.8 0.00 0.58 0.00 83 1005.5
20260506025658 12 249 1.6 6.4 0.00 0.58 0.00 83 1005.5
20260506025158 12 208 1.6 3.2 0.00 0.58 0.00 83 1005.5
20260506024701 12 245 1.6 6.4 0.00 0.58 0.00 83 1005.5
20260506024158 12 258 3.2 6.4 0.00 0.58 0.00 83 1005.1
20260506023658 12 315 0.0 4.8 0.00 0.58 0.00 84 1005.1
20260506023158 12 304 0.0 3.2 0.00 0.58 0.00 84 1005.5
20260506022701 12 191 0.0 3.2 0.00 0.58 0.00 84 1005.5
20260506022201 12 200 0.0 6.4 0.00 0.58 0.00 84 1005.5
20260506021658 12 196 0.0 3.2 0.00 0.58 0.00 84 1005.5
20260506021201 12 289 0.0 3.2 0.00 0.58 0.00 84 1005.5
20260506020658 12 187 0.0 6.4 0.00 0.58 0.00 84 1005.1
20260506020158 12 230 1.6 11.3 0.00 0.58 0.00 84 1005.5
20260506015701 12 191 4.8 11.3 0.00 0.58 0.00 84 1005.1
20260506015158 12 194 1.6 6.4 0.00 0.58 0.00 84 1005.5
20260506014701 12 187 3.2 9.7 0.00 0.58 0.00 84 1005.5
20260506014201 12 192 1.6 8.0 0.00 0.58 0.00 84 1005.5
20260506013658 12 201 0.0 3.2 0.00 0.58 0.00 84 1005.5
20260506013158 12 250 0.0 6.4 0.00 0.58 0.00 84 1005.5
20260506012658 12 211 0.0 4.8 0.00 0.58 0.00 84 1005.5
20260506012158 12 212 1.6 4.8 0.00 0.58 0.00 84 1005.5
20260506011658 12 246 1.6 6.4 0.00 0.61 0.00 84 1005.5
20260506011201 12 242 1.6 6.4 0.00 0.61 0.00 84 1005.5
20260506010658 12 273 1.6 6.4 0.00 0.61 0.00 84 1005.5
20260506010158 12 295 3.2 6.4 0.00 0.61 0.00 84 1005.5
20260506005701 12 225 0.0 8.0 0.00 0.61 0.00 84 1005.5
20260506005201 13 179 1.6 4.8 0.00 0.61 0.00 84 1005.5
20260506004658 12 315 0.0 4.8 0.00 0.64 0.00 84 1005.8
20260506004207 13 199 1.6 6.4 0.00 0.64 0.00 84 1005.8
20260506003658 13 203 0.0 9.7 0.00 0.64 0.00 84 1005.8
20260506003158 12 197 4.8 9.7 0.00 0.64 0.00 84 1005.8
20260506002701 12 177 3.2 11.3 0.00 0.64 0.00 84 1005.8
20260506002158 12 198 6.4 11.3 0.00 0.64 0.00 84 1005.8
20260506001704 12 160 3.2 11.3 0.00 0.64 0.00 84 1005.8
20260506001201 12 182 4.8 12.9 0.00 0.64 0.00 84 1005.8
20260506000658 12 182 3.2 6.4 0.00 0.64 0.00 84 1006.2
20260506000158 12 176 3.2 6.4 0.00 0.64 0.00 84 1006.2
20260505235658 12 184 1.6 8.0 0.00 0.64 0.00 84 1005.8
20260505235158 12 207 1.6 8.0 0.00 0.64 0.00 84 1006.2
20260505234701 12 218 1.6 6.4 0.00 0.64 0.00 84 1006.2
20260505234204 12 184 1.6 9.7 0.00 0.64 0.00 85 1006.2
20260505233658 12 224 1.6 6.4 0.00 0.64 0.00 85 1006.2
20260505233201 12 279 0.0 4.8 0.00 0.64 0.00 85 1006.2
20260505232704 12 318 0.0 4.8 0.00 0.64 0.00 84 1006.2
20260505232207 13 241 1.6 4.8 0.00 0.64 0.00 84 1006.2
20260505231701 13 251 0.0 4.8 0.00 0.64 0.00 85 1006.2
20260505231201 13 220 0.0 8.0 0.00 0.64 0.00 85 1006.2
20260505230704 13 260 0.0 9.7 0.00 0.64 0.00 85 1006.2
20260505230201 13 170 3.2 8.0 0.00 0.64 0.00 85 1006.2
20260505225658 13 165 1.6 6.4 0.00 0.64 0.00 85 1006.2
20260505225201 13 183 1.6 8.0 0.00 0.64 0.00 86 1006.2
20260505224701 13 200 1.6 8.0 0.00 0.64 0.00 86 1006.2
20260505224158 13 195 0.0 9.7 0.00 0.64 0.00 86 1006.2
20260505223658 13 187 3.2 9.7 0.00 0.64 0.00 86 1006.2
20260505223204 13 202 1.6 9.7 0.00 0.64 0.00 86 1006.2
20260505222704 13 193 3.2 9.7 0.00 0.64 0.00 86 1006.2
20260505222207 13 170 0.0 8.0 0.00 0.64 0.00 85 1006.2
20260505221658 13 182 3.2 9.7 0.00 0.64 0.00 85 1006.2
20260505221158 13 183 3.2 9.7 0.00 0.64 0.00 85 1006.2
20260505220658 13 181 3.2 9.7 0.00 0.64 0.00 85 1006.2
20260505220201 13 329 0.0 3.2 0.00 0.64 0.00 84 1005.8
20260505215658 13 194 0.0 3.2 0.00 0.64 0.00 84 1005.8
20260505215204 13 171 0.0 6.4 0.00 0.64 0.00 84 1006.2
20260505214707 13 171 1.6 6.4 0.00 0.64 0.00 84 1006.2
20260505214201 13 162 1.6 3.2 0.00 0.64 0.00 85 1005.8
20260505213704 13 218 0.0 3.2 0.00 0.64 0.00 85 1006.2
20260505213158 13 278 0.0 3.2 0.00 0.64 0.00 85 1006.2
20260505212658 13 199 0.0 4.8 0.00 0.64 0.00 85 1006.2
20260505212158 13 251 1.6 3.2 0.00 0.64 0.00 85 1006.2
20260505211658 13 219 1.6 3.2 0.00 0.64 0.00 85 1006.2
20260505211201 13 180 1.6 6.4 0.00 0.64 0.00 85 1006.2
20260505210658 13 174 0.0 9.7 0.00 0.64 0.00 85 1006.6
20260505210158 13 184 3.2 9.7 0.00 0.64 0.00 86 1006.2
20260505205658 13 179 1.6 4.8 0.00 0.64 0.00 86 1006.2
20260505205204 13 328 0.0 1.6 0.00 0.64 0.00 86 1006.2
20260505204658 13 217 0.0 1.6 0.00 0.64 0.00 86 1006.2
20260505204158 13 206 0.0 4.8 0.00 0.64 0.00 86 1006.2
20260505203658 13 284 1.6 4.8 0.00 0.64 0.00 86 1006.2
20260505203158 13 182 0.0 6.4 0.00 0.64 0.00 86 1006.2
20260505202658 13 286 0.0 3.2 0.00 0.64 0.00 86 1005.8
20260505202201 13 200 1.6 9.7 0.00 0.64 0.00 86 1005.8
20260505201658 13 241 0.0 4.8 0.00 0.64 0.00 86 1005.8
20260505201204 13 221 0.0 6.4 0.00 0.64 0.00 86 1005.8
20260505200701 13 185 3.2 8.0 0.00 0.64 0.00 86 1005.8
20260505200201 13 249 1.6 8.0 0.00 0.64 0.00 86 1005.8
20260505195701 13 270 3.2 9.7 0.00 0.64 0.00 86 1005.8
20260505195201 13 225 4.8 8.0 0.00 0.64 0.00 86 1005.8
20260505194704 13 260 1.6 9.7 0.00 0.64 0.00 86 1005.8
20260505194158 13 272 1.6 8.0 0.00 0.64 0.00 86 1005.8
20260505193701 13 225 1.6 8.0 0.00 0.64 0.00 86 1005.5
20260505193201 13 266 1.6 4.8 0.00 0.64 0.00 86 1005.5
20260505192701 13 274 0.0 3.2 0.00 0.64 0.00 86 1005.8
20260505192158 13 270 1.6 4.8 0.00 0.64 0.00 86 1005.5
20260505191658 13 284 1.6 3.2 0.00 0.64 0.00 86 1005.5
20260505191158 13 327 1.6 3.2 0.00 0.64 0.00 86 1005.5
20260505190658 13 334 0.0 4.8 0.00 0.64 0.00 86 1005.8
20260505190158 13 287 1.6 6.4 0.00 0.64 0.00 86 1005.8
20260505185701 13 335 1.6 6.4 0.00 0.64 0.00 86 1005.8
20260505185201 13 327 1.6 6.4 0.00 0.64 0.00 86 1005.8
20260505184701 13 334 1.6 4.8 0.00 0.64 0.00 85 1005.8
20260505184204 13 321 1.6 3.2 0.00 0.64 0.00 86 1005.8
20260505183704 13 335 1.6 3.2 0.03 0.64 0.00 86 1005.8
20260505183159 13 319 1.6 4.8 0.05 0.64 0.00 86 1005.8
20260505182658 13 297 0.0 6.4 0.08 0.64 0.00 86 1005.8
20260505182158 13 330 1.6 6.4 0.10 0.64 0.00 86 1005.8
20260505181701 13 335 1.6 4.8 0.15 0.64 0.00 86 1005.8
20260505181201 13 333 0.0 4.8 0.20 0.64 0.00 86 1005.8
20260505180658 13 302 0.0 4.8 0.36 0.64 0.00 86 1005.8
20260505180158 13 326 1.6 6.4 0.48 0.64 0.00 87 1005.8
20260505175658 13 310 3.2 8.0 0.56 0.61 0.00 86 1005.8
20260505175207 13 304 3.2 9.7 0.58 0.61 0.00 87 1005.8
20260505174704 13 258 0.0 11.3 0.58 0.61 0.00 87 1005.8
20260505174201 13 260 3.2 8.0 0.56 0.61 0.00 87 1005.8
20260505173658 13 204 3.2 12.9 0.56 0.58 0.00 87 1005.8
20260505173201 13 246 4.8 14.5 0.53 0.56 0.00 86 1005.8
20260505172701 13 284 4.8 19.3 0.48 0.53 0.00 86 1005.5
20260505172204 13 267 4.8 19.3 0.46 0.51 0.00 86 1005.5
20260505171658 13 256 6.4 22.5 0.41 0.46 0.00 85 1005.1
20260505171201 14 243 6.4 27.4 0.38 0.41 0.00 84 1005.1
20260505170704 14 236 8.0 22.5 0.23 0.25 0.00 81 1005.1
20260505170201 15 244 6.4 25.7 0.10 0.13 0.00 76 1005.1
20260505165704 16 255 9.7 35.4 0.00 0.05 0.00 68 1005.1
20260505165158 18 220 11.3 43.5 0.00 0.03 0.00 59 1004.8
20260505164658 20 177 8.0 11.3 0.00 0.03 0.00 54 1004.5
20260505164201 19 319 1.6 6.4 0.00 0.03 0.00 54 1003.7
20260505163701 19 66 1.6 8.0 0.00 0.03 0.00 54 1003.7
20260505163158 20 11 1.6 9.7 0.00 0.03 0.00 53 1003.7
20260505162701 20 43 0.0 8.0 0.00 0.03 0.00 51 1003.4
20260505162158 20 3 1.6 14.5 0.00 0.03 0.00 51 1003.4
20260505161704 20 340 4.8 14.5 0.00 0.03 0.00 49 1003.7
20260505161158 20 352 3.2 12.9 0.00 0.03 0.00 47 1004.1
20260505160704 20 326 3.2 19.3 0.00 0.03 0.00 47 1004.1
20260505160201 20 18 8.0 22.5 0.00 0.03 0.00 46 1004.1
20260505153158 21 351 6.4 20.9 0.00 0.03 0.00 46 1004.1
20260505152704 21 346 8.0 19.3 0.00 0.03 0.00 45 1004.1
20260505152207 21 350 6.4 17.7 0.00 0.03 0.00 44 1004.1
20260505151658 21 2 3.2 17.7 0.00 0.03 0.00 43 1004.1
20260505151201 21 336 6.4 17.7 0.00 0.03 0.00 42 1004.1
20260505150701 21 345 8.0 16.1 0.00 0.03 0.00 41 1004.1
20260505150158 21 321 1.6 16.1 0.00 0.03 0.00 42 1004.1
20260505140201 22 336 4.8 12.9 0.00 0.03 0.00 41 1004.5
20260505130158 24 60 1.6 8.0 0.00 0.03 0.00 32 1005.1
20260505124658 25 119 3.2 8.0 0.00 0.03 0.00 29 1005.1
20260505124205 25 90 3.2 8.0 0.00 0.03 0.00 28 1005.1
20260505123704 26 124 3.2 8.0 0.00 0.03 0.00 26 1005.1
20260505123207 25 126 3.2 9.7 0.00 0.03 0.00 28 1005.1
20260505122658 25 359 3.2 6.4 0.00 0.03 0.00 29 1005.5
20260505122158 25 182 4.8 9.7 0.00 0.03 0.00 30 1005.5
20260505121704 25 103 3.2 9.7 0.00 0.03 0.00 30 1005.5
20260505121201 24 344 1.6 9.7 0.00 0.03 0.00 30 1005.5
20260505120701 24 305 1.6 8.0 0.00 0.03 0.00 31 1005.5
20260505120158 25 333 1.6 8.0 0.00 0.03 0.00 30 1005.5
20260505115658 26 255 1.6 8.0 0.00 0.03 0.00 31 1005.8
20260505115158 25 258 1.6 8.0 0.00 0.03 0.00 32 1005.8
20260505114658 25 173 3.2 11.3 0.00 0.03 0.00 31 1005.8
20260505114159 25 133 3.2 12.9 0.00 0.03 0.00 32 1005.8
20260505113704 25 329 4.8 11.3 0.00 0.03 0.00 31 1005.8
20260505113201 26 229 3.2 8.0 0.00 0.03 0.00 30 1005.8
20260505112704 25 212 3.2 12.9 0.00 0.03 0.00 32 1005.8
20260505112204 25 266 3.2 9.7 0.00 0.03 0.00 31 1005.8
20260505111658 25 235 1.6 8.0 0.00 0.03 0.00 32 1005.8
20260505111201 25 293 3.2 9.7 0.00 0.03 0.00 32 1005.8
20260505110658 25 245 1.6 8.0 0.00 0.03 0.00 34 1006.2
20260505110201 24 278 1.6 8.0 0.00 0.03 0.00 33 1006.2
20260505102201 24 244 3.2 11.3 0.00 0.03 0.00 38 1006.6
20260505101707 23 292 3.2 14.5 0.00 0.03 0.00 39 1006.6
20260505101158 24 247 3.2 8.0 0.00 0.03 0.00 38 1006.6
20260505100704 23 228 1.6 14.5 0.00 0.03 0.00 42 1006.9
20260505100201 23 269 4.8 12.9 0.00 0.03 0.00 40 1006.9
20260505095704 23 317 6.4 11.3 0.00 0.03 0.00 39 1006.9
20260505095158 25 262 1.6 6.4 0.00 0.03 0.00 38 1006.9
20260505094704 24 162 1.6 11.3 0.00 0.03 0.00 39 1006.9
20260505094158 23 211 1.6 8.0 0.00 0.03 0.00 40 1006.9
20260505093701 23 260 3.2 8.0 0.00 0.03 0.00 40 1006.9